Location: Black Swamp Observatory
(41.3920°N, 84.1250°W)
Time: 19:56:48
(UTC-04:00)

Courier 1B - Pass Details

Date: 30 January 2022
Orbit: 962 x 1209 km, 28.3° (Epoch: 20 May)

Event Time Altitude Azimuth Distance (km) Brightness Sun altitude
Rises 21:52:52 0° 258° (WSW) 4,076 11.3 -45.3°
Reaches altitude 10° 21:56:23 10° 245° (WSW) 3,130 10.5 -45.9°
Enters shadow 21:58:06 15° 234° (SW) 2,754 10.0 -46.2°
